Regional Weather Roundup
Issued by NWS Burlington, VT

Current Version | Previous Version | Text Only | Print | Product List | Glossary Off
Versions: 1 2 3 4 5 6 7 8 9 10 11 12 13 14 15 16 17 18 19 20 21 22 23 24 25 26 27 28 29 30 31 32 33 34 35 36 37 38 39 40 41 42 43 44 45 46 47 48 49 50

000
ASUS41 KBTV 030110
RWRBTV
VERMONT REGIONAL WEATHER ROUNDUP
NATIONAL WEATHER SERVICE BURLINGTON VT
900 PM EDT WED SEP 02 2015

NOTE: "FAIR" INDICATES FEW OR NO CLOUDS BELOW 12,000 FEET WITH NO
SIGNIFICANT WEATHER AND/OR OBSTRUCTIONS TO VISIBILITY.

* THESE REPORTS ARE NOT UNDER NWS QUALITY CONTROL AND/OR DO NOT
  REPORT WEATHER SUCH AS PRECIPITATION AND FOG.

VTZ001>019-030200-
_____VERMONT_____


CITY           SKY/WX    TMP DP  RH WIND       PRES   REMARKS
BURLINGTON     PTCLDY    76  67  73 E3        29.88F
MONTPELIER     PTCLDY    66  62  87 CALM      29.96S
MORRISVILLE    CLEAR     70  66  87 CALM      29.92F
ST. JOHNSBURY*   N/A     69  65  86 MISG      29.90R
LYNDONVILLE*   FAIR      71  65  82 CALM      29.95S
MIDDLEBURY*    FAIR      74  65  73 CALM      29.89S
RUTLAND*       PTCLDY   N/A N/A N/A MISG        N/A
SPRINGFIELD    CLEAR     70  66  87 CALM      29.91R
HIGHGATE*      FAIR      71  69  93 CALM      29.88F
NEWPORT*       FAIR      67  64  92 CALM      29.92F
BENNINGTON     CLEAR     69  65  86 S5        29.92S
SUTTON*          N/A     66 N/A N/A MISG        N/A

_____LAKE CHAMPLAIN_____


CITY           SKY/WX    TMP DP  RH WIND       PRES   REMARKS

$$

NYZ007-026>031-035-052-083-030200-
_____NORTHERN NEW YORK_____


CITY           SKY/WX    TMP DP  RH WIND       PRES   REMARKS
PLATTSBURGH    PTCLDY    70  68  93 W5        29.88S
SARANAC LAKE   PTCLDY    65  62  90 SW3       29.94F FOG
MASSENA        CLOUDY    70  67  90 SW5       29.89S FOG
OGDENSBURG*    CLEAR     72  70  94 SW5       29.90R FOG
POTSDAM*       CLEAR     72  70  94 CALM      29.91R
WATERTOWN      CLEAR     68  65  90 CALM      29.92R FOG
FT DRUM        PTCLDY    69  67  93 S6        29.92S
ALBANY         PTCLDY    76  65  68 CALM      29.90R
GLENS FALLS    CLEAR     73  68  84 CALM      29.88S

$$
NHZ002-005-011-030200-
_____NEW HAMPSHIRE_____


CITY           SKY/WX    TMP DP  RH WIND       PRES   REMARKS
LEBANON        PTCLDY    70  66  87 CALM      29.90R
KEENE          CLEAR     70  64  83 CALM      29.90S
MT WASHINGTON  FOG       55  55 100 W26         N/A  VSB 1/8
PLYMOUTH       FOG       67  66  94 CALM      29.89S VSB 1
WHITEFIELD     PTCLDY    65  62  90 S3        29.94R FOG

$$

_____REGIONAL QUEBEC LOCATIONS_____


CITY           SKY/WX    TMP DP  RH WIND       PRES   REMARKS
MONTREAL       CLOUDY    73  68  83 W6        29.88R
QUEBEC CITY    MOCLDY    72  70  94 SW9       29.82F
SHERBROOKE     CLEAR     70  66  88 S5        29.88F

_____REGIONAL ONTARIO LOCATIONS_____


CITY           SKY/WX    TMP DP  RH WIND       PRES   REMARKS
OTTAWA         TSTM      73  70  88 W5        29.90R

______KEY______
VSB  - VISIBILITY IN MILES
WCI  - WIND CHILL INDEX
HX   - HEAT INDEX
$$
NNNN



USA.gov is the U.S. government's official web portal to all federal, state and local government web resources and services.